TimeCDT,TemperatureF,Dew PointF,Humidity,Sea Level PressureIn,VisibilityMPH,Wind Direction,Wind SpeedMPH,Gust SpeedMPH,PrecipitationIn,Events,Conditions,WindDirDegrees,DateUTC
12:53 AM,73.9,70.0,87,29.79,8.0,East,3.5,-,N/A,,Clear,90,2013-09-01 05:53:00
1:53 AM,73.0,70.0,90,29.80,8.0,ESE,3.5,-,N/A,,Clear,110,2013-09-01 06:53:00
2:53 AM,72.0,70.0,93,29.79,6.0,SE,5.8,-,N/A,,Clear,130,2013-09-01 07:53:00
3:53 AM,71.1,69.1,93,29.80,5.0,SE,3.5,-,N/A,,Clear,130,2013-09-01 08:53:00
4:50 AM,66.2,66.2,100,29.81,1.8,Calm,Calm,-,N/A,,Clear,0,2013-09-01 09:50:00
4:53 AM,66.9,66.0,97,29.79,1.5,Calm,Calm,-,N/A,,Clear,0,2013-09-01 09:53:00
5:06 AM,66.2,66.2,100,29.81,1.2,Calm,Calm,-,N/A,,Partly Cloudy,0,2013-09-01 10:06:00
5:16 AM,68.0,66.2,94,29.81,2.5,NW,4.6,-,N/A,,Clear,310,2013-09-01 10:16:00
5:41 AM,66.2,66.2,100,29.81,1.2,SSW,3.5,-,N/A,,Partly Cloudy,210,2013-09-01 10:41:00
5:53 AM,66.9,66.9,100,29.80,1.2,SW,3.5,-,N/A,,Clear,230,2013-09-01 10:53:00
6:00 AM,66.2,66.2,100,29.81,1.5,SW,3.5,-,N/A,,Scattered Clouds,230,2013-09-01 11:00:00
6:27 AM,66.2,66.2,100,29.80,0.8,South,3.5,-,N/A,,Mist,190,2013-09-01 11:27:00
6:35 AM,66.2,66.2,100,29.81,0.2,Calm,Calm,-,N/A,Fog,Fog,0,2013-09-01 11:35:00
6:53 AM,66.9,66.9,100,29.79,0.2,Calm,Calm,-,N/A,Fog,Fog,0,2013-09-01 11:53:00
7:05 AM,68.0,68.0,100,29.81,0.8,WSW,4.6,-,N/A,,Overcast,240,2013-09-01 12:05:00
7:32 AM,69.8,69.8,100,29.83,0.2,WSW,3.5,-,N/A,Fog,Fog,250,2013-09-01 12:32:00
7:50 AM,71.6,71.6,100,29.83,1.0,West,3.5,-,N/A,,Mist,280,2013-09-01 12:50:00
7:53 AM,71.1,71.1,100,29.82,1.5,Calm,Calm,-,N/A,,Mostly Cloudy,0,2013-09-01 12:53:00
8:05 AM,71.6,71.6,100,29.83,2.0,Calm,Calm,-,N/A,,Scattered Clouds,0,2013-09-01 13:05:00
8:29 AM,73.4,71.6,94,29.84,3.0,WSW,4.6,-,N/A,,Scattered Clouds,250,2013-09-01 13:29:00
8:53 AM,75.9,72.0,87,29.79,6.0,SSW,3.5,-,N/A,,Partly Cloudy,200,2013-09-01 13:53:00
9:53 AM,79.0,73.0,82,29.79,8.0,WNW,4.6,-,N/A,,Clear,290,2013-09-01 14:53:00
10:53 AM,81.0,66.9,62,29.81,10.0,WNW,5.8,-,N/A,,Clear,290,2013-09-01 15:53:00
11:23 AM,82.4,66.2,58,29.82,6.0,West,8.1,-,N/A,,Haze,280,2013-09-01 16:23:00
11:53 AM,84.9,66.9,55,29.79,10.0,Variable,6.9,-,N/A,,Clear,0,2013-09-01 16:53:00
12:53 PM,87.1,64.9,48,29.80,9.0,Variable,6.9,-,N/A,,Clear,0,2013-09-01 17:53:00
1:53 PM,87.1,66.0,49,29.79,9.0,West,5.8,-,N/A,,Partly Cloudy,280,2013-09-01 18:53:00
2:53 PM,87.1,64.9,48,29.77,10.0,NNW,6.9,-,N/A,,Scattered Clouds,330,2013-09-01 19:53:00
3:53 PM,88.0,66.0,48,29.77,10.0,WNW,6.9,-,N/A,,Mostly Cloudy,300,2013-09-01 20:53:00
4:53 PM,86.0,64.9,49,29.78,10.0,WNW,5.8,-,N/A,,Partly Cloudy,290,2013-09-01 21:53:00
5:53 PM,86.0,64.0,48,29.78,8.0,NW,6.9,16.1,N/A,,Clear,310,2013-09-01 22:53:00
6:53 PM,82.0,57.0,42,29.80,10.0,NW,8.1,18.4,N/A,,Clear,320,2013-09-01 23:53:00
7:53 PM,78.1,57.9,50,29.82,10.0,NNW,6.9,-,N/A,,Clear,330,2013-09-02 00:53:00
8:53 PM,75.9,59.0,56,29.85,10.0,NNW,10.4,-,N/A,,Clear,340,2013-09-02 01:53:00
9:53 PM,73.0,59.0,61,29.86,9.0,NNW,6.9,-,N/A,,Clear,340,2013-09-02 02:53:00
10:53 PM,71.1,59.0,66,29.88,10.0,North,6.9,-,N/A,,Clear,350,2013-09-02 03:53:00
11:53 PM,70.0,59.0,68,29.89,10.0,North,5.8,-,N/A,,Clear,350,2013-09-02 04:53:00